Simultaneous Nadir Overpasses (SNOs) Predictions

Prediction of SNOs between METOP-A and TERRA Satellite Orbit:

Table of predicted SNOs for the next 14.0 days since TLE Epoch: 2/15/2013
Index Date (METOP-A) Time (METOP-A) Lat,Lon (METOP-A) SZA (METOP-A ) Date (TERRA) Time (TERRA) Lat,Lon (TERRA) SZA (TERRA ) Distance(km) Time Diff (sec)
1 02/17/2013 13:15:56 -81.36,-150.64 84.41 02/17/2013 13:16:12 -81.36,-150.84 84.43 3.29 16
2 02/17/2013 14:06:36 81.36, 16.89 95.60 02/17/2013 14:05:38 81.37, 16.95 95.59 1.06 58
3 02/20/2013 08:50:16 -81.36, -84.27 85.41 02/20/2013 08:50:35 -81.36, -84.36 85.40 1.57 19
4 02/20/2013 09:40:56 81.36, 83.23 94.61 02/20/2013 09:40:02 81.35, 83.04 94.56 3.28 54
5 02/23/2013 04:24:38 -81.36, -18.06 86.44 02/23/2013 04:25:04 -81.36, -18.05 86.42 0.35 26
6 02/
